Theta_e
286 285 285 285 284 284 284 283 284 283 283 282 282 282 282 282 283 283 284 284 284 285 285 285 285 285 285 285 285 285 286 286 286 286 287 287 287 287 287 287 288 288 288 288 288 288 288 288 288 288 288 288 288 288 288 288 289 290 292 293 293 293 295 296 297 299 300 299 298 297 295 295 296 296 297 299 300 300 300 299 299 298 297 296 296
285 284 284 284 284 283 283 283 283 282 282 282 281 282 282 282 283 283 283 284 285 285 285 284 284 284 285 285 285 285 286 286 286 286 286 286 286 286 286 286 286 287 287 287 287 287 288 288 288 288 288 288 288 288 288 288 288 288 290 292 293 293 293 295 296 297 298 298 297 296 294 293 293 293 295 296 296 297 297 297 297 298 298 297 296
284 284 283 283 283 283 282 282 282 281 281 281 281 281 282 282 282 283 283 284 285 285 284 284 284 284 284 285 285 285 286 286 286 286 286 285 285 285 285 285 285 286 286 286 286 286 287 287 287 287 288 288 288 288 288 288 288 287 288 290 292 292 292 293 294 295 297 298 298 298 296 294 294 292 291 293 293 294 294 294 295 296 297 297 296
284 283 283 283 282 282 281 281 281 281 281 281 281 281 281 282 282 282 283 284 285 284 283 283 283 283 284 284 284 284 285 285 285 285 285 284 284 284 284 284 285 286 286 286 286 285 286 286 287 287 287 288 288 288 289 288 288 288 287 289 291 292 292 292 293 294 296 297 297 297 296 296 299 296 292 292 291 290 291 292 293 293 294 295 294
283 282 282 282 282 281 281 280 280 280 280 281 281 281 281 281 281 281 283 284 283 283 283 283 283 284 284 284 283 283 284 284 284 284 284 284 283 283 283 284 285 285 285 285 285 285 286 286 286 286 286 287 288 288 289 289 288 288 287 288 290 292 292 292 293 293 294 295 295 296 296 297 300 299 296 293 289 289 290 290 291 291 291 291 292
282 282 282 282 281 281 280 280 280 280 280 280 280 279 279 279 280 280 281 282 282 282 282 282 283 283 284 284 284 284 284 284 284 284 284 284 283 282 282 283 284 284 285 285 285 285 285 286 286 286 286 286 287 288 289 289 289 288 288 288 289 291 292 291 292 292 293 293 293 294 295 295 295 296 298 296 289 287 289 288 289 290 289 290 290
282 281 281 281 281 280 280 280 280 280 280 280 279 278 278 279 279 280 280 281 281 281 281 281 282 283 283 283 283 284 284 283 283 283 283 283 282 282 282 282 283 283 283 284 284 285 285 285 285 285 285 286 286 287 287 288 288 288 288 288 288 290 291 291 291 291 292 292 292 293 293 293 292 292 295 297 292 289 287 286 287 288 288 289 289
281 281 281 280 280 280 280 280 280 280 280 279 278 278 278 278 278 279 279 279 280 280 280 281 281 282 282 282 282 283 283 283 283 283 283 282 281 281 281 281 282 282 283 283 283 283 283 283 283 284 284 285 285 286 286 287 288 288 289 289 289 289 290 291 291 291 291 291 292 292 293 293 292 292 292 293 293 292 288 285 286 286 286 287 288
281 281 280 280 280 280 280 279 279 280 279 278 278 278 278 278 277 277 277 277 278 278 278 279 279 280 281 281 281 281 281 281 282 282 282 282 281 281 280 280 281 282 282 281 281 282 282 282 282 283 283 284 284 285 285 286 287 288 289 289 289 289 290 290 290 291 291 291 291 291 292 292 292 292 292 291 290 292 291 287 286 285 284 285 287
281 280 280 280 280 280 279 279 279 279 279 278 278 278 277 277 277 277 277 276 276 276 277 276 276 277 278 279 279 279 279 280 281 281 282 281 280 280 280 279 280 280 280 280 281 282 281 281 281 281 281 282 283 283 284 284 285 287 288 288 289 289 289 289 290 290 290 291 291 291 291 291 291 291 291 291 289 290 291 289 287 285 285 286 286
281 280 280 280 279 279 279 279 279 279 278 278 278 277 277 277 277 277 277 276 276 276 276 275 275 275 276 276 277 278 278 279 280 281 281 281 280 280 279 279 279 279 279 279 280 280 280 279 279 278 278 279 280 281 282 283 284 285 286 287 288 289 289 289 289 290 290 290 290 290 290 290 291 292 291 291 290 290 290 290 287 286 287 287 287
281 280 279 279 279 279 278 279 279 279 278 278 278 277 277 277 277 277 276 276 276 275 275 274 274 274 275 275 276 277 278 279 280 280 280 280 280 279 279 278 278 278 278 279 279 278 278 278 277 277 276 277 277 278 280 282 283 284 285 286 287 288 289 289 289 289 289 289 289 289 290 290 290 291 292 291 291 290 290 290 288 285 286 287 287
280 280 279 279 278 278 278 278 279 279 278 278 278 277 277 277 277 277 276 276 276 275 274 274 274 274 274 275 276 277 278 278 279 280 280 280 279 279 278 278 278 278 278 278 278 278 277 277 276 276 275 276 276 277 278 279 282 284 284 285 286 287 288 288 288 289 289 289 289 289 289 289 289 290 291 291 291 290 290 290 288 286 286 286 286
280 280 279 279 278 278 278 278 279 278 278 278 278 277 277 277 277 276 276 276 275 275 274 274 273 273 273 275 276 277 277 278 279 279 280 279 278 278 278 277 277 277 277 277 277 276 276 276 275 275 275 275 275 276 277 278 281 283 284 284 285 286 287 287 288 288 289 288 288 289 289 289 289 289 290 290 291 290 289 290 289 286 286 285 284
280 279 279 279 278 278 278 278 279 278 278 278 278 277 277 277 277 276 276 276 275 274 274 273 273 273 273 274 276 276 276 277 278 279 279 278 278 277 277 277 277 277 277 276 275 275 274 274 274 274 274 274 275 275 276 278 281 282 283 284 284 285 286 287 287 288 288 288 288 288 289 289 289 289 289 290 290 290 290 290 290 288 286 285 283
280 279 279 278 278 278 278 278 279 278 278 278 277 277 277 277 277 276 276 275 274 274 273 273 272 272 273 274 275 275 275 276 277 278 278 277 277 277 277 276 276 275 275 274 274 274 273 274 274 274 274 274 274 274 275 278 280 281 282 283 284 285 286 286 287 287 288 288 288 288 288 288 289 289 289 289 289 290 290 289 290 289 288 287 285
280 280 279 279 278 278 278 278 278 278 278 278 277 277 277 277 276 276 275 275 274 273 273 272 272 272 272 273 274 274 274 274 275 275 275 276 276 276 275 274 274 273 273 273 273 273 273 273 273 274 274 274 275 275 276 278 280 281 282 283 284 284 285 286 287 287 287 287 288 288 288 288 288 288 289 289 289 290 290 289 289 289 289 289 287
280 280 279 279 278 278 278 278 278 278 278 278 277 277 277 277 276 275 275 274 273 273 272 272 271 271 272 273 273 273 273 273 273 273 273 274 274 274 273 272 272 272 272 272 272 272 273 273 273 274 274 275 275 276 277 278 280 281 282 283 283 284 285 285 286 286 287 287 287 287 287 287 288 288 288 289 289 289 290 289 289 288 289 290 289
280 280 279 279 278 278 278 278 278 278 278 278 277 277 277 276 276 275 274 273 272 272 271 271 271 271 272 273 272 272 272 272 272 272 272 272 272 272 272 271 271 271 271 272 272 272 272 273 273 274 274 275 276 277 277 278 279 281 281 282 283 284 284 285 286 286 287 287 287 287 287 287 287 288 288 288 289 289 289 289 289 289 288 289 290
280 280 279 279 279 278 278 278 278 278 278 278 277 277 276 276 275 274 273 272 271 271 271 270 270 271 271 271 271 271 271 271 271 271 271 271 271 271 270 270 270 271 271 272 272 272 273 273 274 274 275 276 277 278 278 279 279 280 281 282 283 283 284 285 285 286 286 287 286 286 286 287 287 287 287 288 288 288 289 289 289 289 288 288 288
280 280 279 279 279 279 278 278 278 278 278 278 277 277 276 275 274 273 272 271 271 270 270 270 270 270 270 270 270 270 270 270 270 270 270 270 270 269 269 269 270 271 272 272 273 273 273 274 275 275 275 276 278 279 279 279 280 281 282 282 283 284 284 285 285 286 286 286 286 286 286 287 287 287 287 287 288 288 289 289 289 289 288 288 288
280 279 279 279 278 278 278 278 278 278 277 277 277 276 275 274 273 272 271 271 270 270 269 269 269 269 269 270 270 269 269 269 269 269 269 268 268 268 268 268 269 271 272 272 272 273 274 275 275 276 277 277 278 278 279 280 281 281 282 282 283 284 284 285 285 286 286 286 286 286 286 287 287 287 286 287 287 288 288 288 288 288 288 288 288
280 279 279 279 278 278 278 278 278 278 277 277 276 275 274 273 272 271 271 270 270 269 269 269 269 268 269 269 269 269 269 268 268 268 267 268 268 268 268 268 269 270 271 271 271 272 273 274 275 276 277 277 278 278 279 280 281 282 282 283 283 284 284 285 285 285 286 286 286 286 286 287 287 287 286 286 287 288 288 288 288 288 288 288 288
279 279 279 279 278 278 278 278 278 277 277 276 275 274 273 272 271 271 270 270 269 269 268 268 268 268 269 269 269 269 268 267 267 267 267 267 267 267 268 268 268 269 270 270 271 272 273 274 275 275 276 276 277 278 278 279 280 281 283 284 284 284 284 284 285 285 286 286 286 286 286 286 287 286 286 286 287 287 288 288 288 288 288 288 288
279 279 278 278 278 278 278 278 277 277 277 275 274 273 272 271 271 270 270 269 268 268 268 268 268 268 268 268 268 268 268 267 267 267 267 267 267 267 268 268 268 269 269 270 271 272 273 273 274 274 274 275 275 275 276 277 277 279 281 283 284 284 284 285 285 285 286 286 286 286 286 286 286 286 286 286 286 287 288 288 288 288 288 288 288
279 278 278 278 278 278 278 277 277 277 276 275 273 273 272 271 270 270 269 268 268 268 268 267 267 267 267 267 267 267 267 267 266 266 267 267 267 267 268 268 268 269 270 271 271 271 271 271 272 272 273 273 273 274 274 275 276 276 278 280 282 283 284 285 285 285 285 285 285 286 286 286 286 286 286 286 286 287 287 287 288 288 288 288 288
278 278 278 277 277 277 277 276 276 276 275 274 273 272 271 270 270 269 268 268 267 267 267 267 267 267 267 267 266 266 266 266 266 266 267 267 267 267 267 268 268 269 270 270 270 269 269 269 270 270 271 272 272 273 274 274 275 276 276 278 280 281 283 284 285 285 285 285 285 285 285 285 286 286 286 286 286 286 286 287 287 287 287 287 287
278 278 277 276 276 276 276 275 275 275 274 273 272 271 270 270 269 268 268 267 267 267 267 267 266 266 266 266 266 266 266 266 266 267 267 267 267 267 267 267 268 269 270 269 269 268 268 268 269 269 270 271 271 272 273 274 274 275 276 277 278 280 282 282 283 283 284 284 284 285 285 285 285 286 286 286 286 286 286 286 287 287 287 287 287
277 277 276 275 275 275 274 274 274 274 273 271 271 270 269 269 268 267 267 267 267 267 267 266 266 266 266 266 266 266 266 266 267 267 267 267 267 267 267 267 268 268 269 268 268 268 268 268 268 269 270 271 271 272 272 273 274 275 275 276 278 281 282 282 283 283 283 283 284 284 285 285 285 286 286 286 286 286 286 286 286 287 287 287 286
276 275 274 273 273 273 273 272 272 272 271 270 269 269 269 268 267 267 266 266 266 266 266 266 266 266 266 266 266 266 266 266 266 267 267 267 267 267 267 267 268 268 268 268 268 268 268 268 268 269 269 270 271 271 272 273 274 276 276 277 279 281 282 282 283 283 283 283 284 284 285 285 285 285 285 285 285 286 285 285 285 286 286 286 286
273 272 271 271 271 271 271 271 270 270 269 269 268 268 268 267 267 266 266 266 266 266 266 266 266 266 266 266 266 266 266 266 266 267 267 267 267 267 267 267 267 267 267 267 267 268 268 268 268 269 269 270 270 271 272 273 275 276 277 278 279 280 282 283 283 284 284 284 284 284 285 285 285 285 285 285 285 285 285 285 285 285 285 286 286
270 270 270 270 270 270 269 269 269 268 268 268 268 267 267 266 266 266 266 266 266 266 266 266 266 266 266 266 266 266 266 266 266 267 267 267 267 267 267 267 267 267 267 267 267 268 268 268 269 269 270 270 271 271 272 274 275 276 277 278 279 280 282 283 284 284 284 284 285 285 285 285 285 285 285 285 285 285 285 285 285 285 285 285 285
269 269 269 269 269 268 268 268 267 267 267 267 267 266 266 265 266 266 266 266 266 266 266 266 266 266 266 266 266 266 266 266 266 266 266 267 267 267 267 267 267 267 267 267 268 268 268 269 269 270 270 271 271 272 273 274 276 276 278 278 279 280 281 282 284 284 284 285 285 285 285 285 285 285 285 285 285 285 285 285 285 285 284 284 284
269 269 268 268 267 267 267 267 267 267 267 266 265 265 265 265 265 265 265 265 265 266 266 266 266 266 266 266 266 266 266 266 266 266 266 266 267 267 267 267 267 267 267 268 268 268 268 269 269 270 270 271 272 273 274 275 276 277 278 279 279 280 280 281 282 283 283 284 284 284 284 284 284 285 285 285 285 285 285 285 285 285 284 284 284
268 267 267 267 266 266 267 267 267 266 265 265 265 265 265 265 265 265 265 265 265 265 265 265 265 265 265 266 266 265 266 266 266 266 266 266 266 267 267 267 267 267 268 268 268 268 269 269 270 270 271 271 273 274 275 276 277 278 279 279 279 280 280 281 282 282 282 283 283 284 284 284 284 284 284 285 285 285 285 285 285 285 285 284 284
267 266 266 266 266 266 266 266 266 265 264 264 264 264 264 264 265 265 264 265 265 265 265 265 265 265 265 265 265 265 265 265 265 266 266 266 266 267 267 267 267 267 268 268 268 269 269 270 270 271 271 272 274 276 277 277 278 279 280 280 280 280 281 281 281 281 281 282 283 283 283 284 284 284 284 285 285 285 285 285 285 285 285 285 284
266 265 265 265 265 265 264 264 265 264 264 264 264 264 264 264 264 264 264 264 264 264 264 265 265 265 265 265 265 265 265 265 265 266 266 266 266 266 267 267 267 267 268 268 269 269 270 271 271 272 273 274 277 278 279 279 280 281 281 281 281 281 281 282 281 281 281 282 283 283 283 284 284 284 284 285 285 285 285 285 285 285 285 285 284
265 265 265 264 264 263 263 263 264 263 263 263 263 264 264 264 264 264 264 264 264 264 264 264 264 264 264 265 265 265 265 265 265 266 266 266 266 266 267 267 267 268 268 269 269 270 271 272 272 274 275 277 278 279 280 281 283 284 284 283 282 282 282 282 282 282 282 283 283 283 283 284 284 284 285 285 285 285 285 285 285 285 285 284 284
264 264 264 263 263 262 262 262 263 263 263 263 263 263 263 263 263 263 263 263 263 264 264 264 264 264 264 264 264 264 265 265 265 265 266 266 266 266 267 267 268 268 268 269 270 270 271 273 274 275 277 278 279 279 280 281 282 283 284 283 283 283 284 284 284 284 284 284 284 284 284 284 284 284 285 285 285 285 285 285 285 284 284 284 284
264 263 263 262 262 262 262 262 262 263 262 263 263 263 263 263 263 263 263 263 263 263 263 264 264 264 264 264 264 264 264 265 265 265 265 266 266 267 267 267 268 268 269 269 270 270 271 273 274 276 277 278 279 279 279 280 281 282 283 283 283 283 283 284 284 285 285 285 285 285 285 285 285 285 285 285 285 285 285 285 285 284 284 284 284
263 263 262 261 261 261 261 261 262 262 262 262 263 263 263 263 263 263 263 263 263 263 263 263 263 263 264 264 264 264 264 265 265 265 265 266 266 267 267 268 268 268 269 269 270 271 271 273 274 275 276 277 278 279 279 279 280 280 281 282 282 282 282 282 283 283 284 285 285 285 285 285 285 285 285 285 285 285 285 285 285 285 284 284 284
262 262 261 261 261 261 261 261 261 262 262 262 262 262 262 262 262 263 263 263 263 263 263 263 263 263 263 264 264 264 264 265 265 265 266 266 267 267 267 268 268 268 269 269 270 271 272 273 274 275 276 277 278 278 279 279 279 279 280 280 281 281 281 281 281 282 282 283 284 284 285 285 285 285 285 285 285 285 285 285 285 285 285 285 284
261 261 260 260 260 260 260 261 261 261 261 262 262 262 262 262 262 262 262 262 263 263 263 263 263 263 263 263 264 264 264 265 265 266 266 266 267 267 268 268 268 269 269 270 270 271 272 273 274 275 277 278 279 279 279 279 279 279 280 280 280 280 281 281 281 281 281 281 282 282 283 285 285 285 285 285 285 285 285 285 285 285 285 285 284
261 260 260 260 260 260 260 260 260 261 261 261 262 262 262 262 262 262 262 262 262 262 262 262 263 263 263 263 264 264 264 265 266 266 266 267 267 268 268 268 269 269 269 270 271 272 272 273 274 275 277 278 279 279 279 280 279 279 280 280 280 281 281 281 281 281 281 281 281 282 282 283 284 284 285 285 286 286 286 285 285 285 285 285 284
260 260 259 259 259 259 259 260 260 260 261 261 261 261 261 261 262 262 262 262 262 262 262 262 263 263 263 264 264 264 265 265 266 266 267 267 268 268 268 269 269 269 270 271 271 272 273 273 274 275 276 278 279 279 280 280 280 280 280 280 280 280 280 281 281 281 281 281 281 281 282 282 282 283 284 285 285 286 286 286 286 286 286 285 285
259 259 259 259 259 259 259 259 260 260 261 261 261 261 261 261 261 261 262 262 262 262 262 262 263 263 263 264 264 264 265 266 266 267 267 268 268 268 268 269 270 270 271 271 272 273 274 274 275 276 277 279 279 280 280 280 280 280 281 280 280 280 280 280 280 281 281 281 281 281 281 282 282 283 283 283 284 285 286 286 286 286 286 285 285
259 259 259 259 259 259 259 259 259 260 260 260 260 260 261 261 261 261 261 262 262 262 262 262 263 263 263 264 264 265 265 266 266 267 268 268 269 269 269 269 270 271 271 272 273 274 275 276 277 278 279 280 280 280 280 281 281 281 281 281 281 281 281 280 280 281 281 281 281 282 282 282 282 282 282 283 283 284 285 285 285 285 284 284 284
259 258 258 258 258 258 258 259 259 260 260 260 260 260 260 261 261 261 261 261 262 262 262 262 263 263 264 264 265 265 266 266 267 267 268 269 269 270 270 271 271 272 272 273 274 275 277 278 279 280 280 281 280 280 281 281 281 281 281 281 281 281 280 280 280 281 281 281 282 282 282 282 282 282 282 282 283 283 283 284 284 283 283 283 282
258 258 258 258 258 258 258 259 259 259 260 260 260 260 260 260 261 261 261 261 261 262 262 263 263 264 264 264 265 265 266 266 267 268 269 269 270 271 271 272 273 274 275 276 277 278 279 280 280 281 281 281 281 281 282 281 281 281 280 280 280 280 280 280 280 280 280 281 281 280 280 280 280 280 280 280 281 281 281 282 282 282 281 280 280
258 258 258 257 257 258 258 258 259 259 259 259 259 260 260 260 261 261 261 261 261 262 262 263 263 264 264 265 265 266 266 266 267 268 269 270 271 272 273 273 274 275 276 278 279 279 280 280 281 281 281 281 281 282 282 281 281 281 280 280 280 280 279 279 280 280 280 279 279 278 278 278 278 278 278 278 278 278 278 278 278 279 279 279 278
257 257 257 257 257 258 258 258 259 259 259 259 259 260 260 260 260 261 261 261 261 262 262 263 263 264 264 265 265 266 266 267 268 268 269 270 271 272 274 275 275 275 276 277 278 279 279 280 281 282 282 282 282 282 281 281 281 281 280 280 280 279 279 279 279 279 278 277 276 276 275 276 276 276 276 276 276 276 276 276 276 276 276 277 277
Wind_Speed
9 14 15 14 17 19 21 23 22 20 25 28 28 29 30 30 29 27 30 29 23 19 21 24 24 23 22 22 23 23 24 25 25 25 24 23 22 20 19 18 18 19 20 22 22 24 27 26 25 24 21 21 21 20 21 20 19 19 18 18 19 20 21 18 15 17 22 22 19 22 26 29 32 34 38 41 42 43 42 41 41 40 39 38 36
7 12 15 16 18 20 22 23 22 23 28 29 29 30 30 30 27 27 30 26 19 21 26 27 27 26 24 23 23 22 23 23 22 21 20 20 21 20 19 18 18 19 19 21 22 23 24 26 26 25 23 22 22 21 20 19 19 19 17 17 17 17 18 20 16 13 13 15 12 11 14 18 23 27 32 37 38 40 41 41 41 41 41 40 38
5 9 14 16 17 19 22 23 23 25 27 26 28 28 29 30 27 29 30 22 19 26 29 30 31 30 26 24 24 23 22 21 19 18 19 20 20 20 21 20 20 20 21 22 23 23 24 24 24 24 24 24 22 22 21 19 19 19 18 17 17 16 17 18 17 13 13 16 14 8 5 8 12 17 25 33 37 37 38 39 40 41 42 41 40
6 8 12 15 17 19 21 22 24 26 25 26 28 29 30 31 31 35 30 21 25 32 32 31 33 32 28 25 25 24 23 21 19 20 21 20 20 22 22 22 21 20 21 22 23 23 23 23 23 23 23 24 24 24 22 20 20 20 19 17 15 15 15 15 16 14 15 15 8 3 2 4 8 10 17 28 32 32 34 37 39 40 41 41 41
7 8 11 14 16 18 20 22 24 24 25 27 28 30 33 34 35 38 32 27 32 35 33 32 33 32 30 27 26 25 24 24 22 22 22 21 22 23 23 22 21 20 20 21 22 23 23 23 23 23 22 22 24 25 24 23 23 21 19 18 17 16 15 15 16 15 16 18 11 3 1 2 5 7 10 15 21 29 34 37 38 39 39 40 41
7 8 9 12 15 16 18 20 22 23 24 26 28 32 35 35 35 36 32 30 32 33 33 33 32 31 29 28 27 24 22 23 24 23 22 22 23 22 22 21 19 18 19 19 20 22 23 24 23 22 22 22 22 25 26 25 25 24 21 20 19 18 17 16 16 16 16 19 20 16 11 6 3 1 4 5 11 22 29 33 36 38 38 39 41
6 6 8 12 15 16 18 21 23 22 22 25 29 32 34 33 33 32 31 30 30 31 32 33 32 30 29 28 28 25 22 23 26 27 25 24 22 21 20 18 16 17 19 19 19 19 21 22 22 22 22 22 22 23 26 27 27 27 25 22 20 19 19 17 18 17 15 16 19 23 24 20 12 6 3 2 3 10 18 26 33 36 37 39 42
6 6 8 13 15 16 16 20 21 17 19 24 28 30 30 30 30 30 30 30 30 31 32 32 32 30 29 28 28 27 27 28 30 30 27 25 22 20 18 16 16 16 17 20 21 21 22 22 22 22 22 22 23 23 25 26 27 28 26 23 21 20 20 19 20 18 14 14 16 18 23 26 23 18 14 8 1 2 8 14 23 30 34 38 41
5 5 7 10 13 14 14 20 19 14 18 24 26 27 28 28 28 29 30 30 31 32 33 33 34 33 31 29 28 29 30 32 33 31 29 27 24 21 18 17 16 15 17 20 21 22 22 22 23 23 23 24 24 24 24 24 24 26 26 25 23 22 22 22 22 20 17 17 15 14 17 20 22 23 22 15 6 4 4 5 12 18 23 34 41
2 3 6 9 11 12 15 19 15 11 17 22 23 26 26 26 27 28 28 30 32 33 34 37 39 37 34 32 31 33 34 34 33 31 31 28 25 22 20 18 17 17 18 18 17 18 18 20 22 22 23 24 26 26 25 25 24 24 25 26 26 25 24 23 23 22 21 19 17 15 15 14 13 13 15 15 10 7 5 4 8 11 13 26 37
3 3 5 8 10 10 14 16 11 10 17 20 23 25 24 24 25 26 27 29 31 32 34 38 40 40 38 36 36 36 35 34 33 31 30 29 26 22 20 18 17 18 19 17 17 18 20 22 23 23 24 25 26 27 28 27 26 25 24 26 28 28 25 24 24 24 22 21 19 18 17 16 14 10 11 14 11 7 6 4 7 14 16 19 28
4 4 5 7 8 10 15 15 10 12 18 20 23 24 23 24 24 24 25 27 29 30 34 37 39 41 40 39 37 36 35 33 31 30 31 29 24 21 19 18 18 18 18 18 19 21 23 25 26 27 28 27 28 29 30 30 28 27 25 25 28 29 25 23 24 25 24 23 22 21 21 21 20 19 18 17 15 13 10 4 4 11 14 14 20
4 4 4 5 7 11 15 15 11 13 18 21 24 23 22 24 23 22 24 26 27 29 33 37 39 41 42 40 37 34 32 32 32 33 31 25 20 19 19 19 20 20 19 19 19 20 22 24 27 30 32 32 32 32 31 31 30 28 26 26 27 27 25 25 26 26 26 25 24 23 22 22 22 23 23 21 19 19 14 6 5 9 8 9 14
4 4 5 6 9 13 16 16 14 14 17 21 22 22 22 23 21 21 22 24 26 29 33 36 39 42 43 39 35 31 30 31 32 29 23 18 17 18 19 21 23 22 19 17 17 20 23 26 30 33 36 36 36 35 33 31 30 29 27 26 27 28 28 28 28 27 27 26 24 23 23 23 23 23 24 23 21 19 16 10 7 6 5 4 8
4 5 6 8 12 15 17 19 17 16 18 21 22 22 22 22 21 20 21 23 26 30 31 34 39 43 42 38 33 31 29 30 29 23 18 17 18 19 21 23 22 19 17 18 21 24 27 30 33 36 38 38 37 36 32 30 30 29 28 28 27 28 29 29 29 28 27 26 25 24 23 24 25 23 23 24 24 22 20 19 12 6 4 2 4
6 7 7 9 14 17 18 20 20 18 19 22 22 22 22 22 20 19 20 23 26 28 30 33 38 42 41 36 33 31 30 30 29 25 21 22 22 23 23 20 18 18 20 23 26 28 31 33 35 36 36 36 36 35 31 29 30 29 28 28 27 27 28 28 29 28 27 27 26 26 25 25 25 26 25 24 25 25 24 24 20 12 7 4 3
8 7 8 11 14 17 19 21 20 18 20 22 22 22 22 20 19 19 21 25 27 28 30 34 38 41 38 34 32 32 31 28 28 28 28 27 25 22 19 18 20 22 25 27 29 31 33 33 33 33 33 33 34 33 30 29 29 29 28 28 28 27 27 28 28 29 29 27 26 26 25 25 25 26 27 26 25 27 27 27 25 20 15 7 4
10 9 10 12 15 18 20 21 20 19 21 23 22 22 20 18 17 19 22 25 26 29 32 35 38 38 36 33 31 30 28 28 30 32 31 27 24 20 20 22 25 27 29 30 31 32 31 30 30 30 31 32 33 32 30 28 28 29 29 29 29 28 27 28 28 28 29 27 26 26 25 25 25 25 27 28 27 26 27 29 29 27 24 15 7
10 11 11 12 15 19 21 22 20 20 23 23 22 21 18 16 17 19 22 24 27 30 33 36 37 35 31 29 28 28 30 31 29 27 26 24 23 21 22 24 26 29 30 31 30 30 29 28 29 30 31 31 31 30 29 28 28 29 29 28 28 27 27 28 28 28 29 27 26 26 25 24 25 25 25 27 28 27 27 28 29 29 29 25 18
11 12 11 12 16 20 22 22 20 20 23 23 22 20 16 16 18 20 23 25 29 32 34 35 35 31 30 30 30 30 29 27 24 23 24 23 20 18 20 24 27 29 30 29 29 28 28 29 29 29 29 29 29 29 29 29 29 29 29 28 27 26 26 28 28 28 28 27 25 25 25 25 24 24 25 26 27 27 27 27 28 29 30 29 26
13 13 12 13 17 21 21 20 19 20 22 23 21 17 14 16 19 22 24 27 31 33 34 35 33 31 31 30 27 25 24 23 22 22 20 19 18 20 24 27 28 28 27 26 27 26 26 27 28 29 28 27 26 25 26 27 28 28 28 27 27 25 26 27 28 27 27 26 25 25 25 26 25 23 24 24 25 26 26 27 26 27 29 30 28
14 15 13 13 17 19 18 17 19 20 22 23 19 13 14 18 20 23 25 28 31 34 35 35 32 29 28 24 22 23 24 23 21 20 20 21 22 24 26 28 27 25 24 24 24 24 24 24 25 26 25 24 23 23 24 26 27 27 27 26 26 25 26 26 26 27 26 25 25 25 26 26 25 23 23 23 24 25 25 26 26 26 27 29 30
15 15 14 15 18 16 15 17 19 20 22 20 14 12 16 20 21 23 26 28 31 33 35 33 29 27 25 23 23 24 22 20 20 22 24 25 25 25 26 26 26 25 25 25 26 25 25 24 24 23 22 22 23 22 21 21 22 25 27 26 25 25 26 26 26 26 26 26 25 25 27 27 25 23 23 23 23 24 25 25 25 26 26 27 30
15 14 14 17 17 15 15 16 18 20 20 15 12 15 18 20 22 24 26 29 31 33 32 29 26 25 24 24 23 21 19 20 23 25 25 26 26 26 25 25 25 25 25 26 27 25 24 23 22 21 20 19 19 18 17 17 18 19 22 24 24 24 25 26 26 27 26 26 26 26 27 27 25 24 22 22 22 22 23 24 24 24 25 25 27
15 14 15 16 16 14 14 16 18 19 16 13 14 17 18 20 22 24 27 29 31 32 29 25 24 24 24 24 23 21 21 23 25 26 26 27 26 26 25 25 25 25 25 24 22 19 19 19 20 21 20 18 19 18 18 19 19 18 17 17 19 22 24 25 26 26 26 25 26 27 27 27 25 24 23 22 22 21 21 22 23 23 23 24 24
16 16 16 15 14 15 16 19 21 16 11 12 15 18 20 21 22 24 28 30 31 30 25 23 23 23 23 23 22 22 23 25 26 26 27 27 26 25 24 24 25 25 23 18 16 17 19 20 22 22 20 21 24 22 20 22 22 20 18 15 15 18 22 24 25 24 24 24 25 26 27 27 26 26 25 23 22 21 21 21 22 22 22 22 21
17 18 16 14 14 16 18 23 21 11 8 14 16 18 22 24 24 25 28 31 31 27 23 22 23 23 22 23 23 23 25 26 26 26 26 25 24 23 23 24 25 22 19 16 18 22 24 25 25 25 22 23 24 23 22 23 24 23 21 19 17 17 18 20 22 22 22 23 24 26 26 27 27 27 27 25 22 21 21 21 21 21 21 20 19
18 17 15 15 16 16 19 24 21 13 13 18 19 21 24 24 24 26 29 32 29 24 22 22 22 22 22 22 24 25 26 27 26 26 25 24 24 24 25 26 25 21 19 21 24 26 27 28 28 28 28 27 26 26 26 25 24 25 24 22 20 18 18 19 20 21 22 23 24 25 26 26 27 28 28 26 24 22 22 22 22 21 21 20 19
18 16 15 17 17 17 21 26 23 19 19 20 21 24 24 21 20 24 30 32 26 22 22 22 22 23 23 24 26 26 26 25 24 23 23 24 25 26 26 26 25 23 24 27 28 29 29 29 28 27 28 28 27 28 28 26 25 25 25 23 21 20 20 20 20 21 22 23 24 24 25 26 26 28 28 28 26 24 23 22 22 22 22 20 19
17 18 19 20 20 22 26 28 26 23 23 23 25 26 22 19 21 25 30 29 23 21 22 22 23 24 24 25 25 24 23 23 23 23 24 25 25 25 25 25 26 27 28 30 29 29 28 28 28 27 27 27 27 28 28 27 25 24 25 23 21 21 21 21 21 21 21 22 23 23 24 25 25 25 27 28 27 26 24 22 21 22 23 22 20
19 21 22 22 22 22 25 26 26 26 27 28 28 24 20 21 25 28 29 26 22 21 22 23 24 24 24 24 23 23 23 23 23 23 23 24 23 23 24 25 26 28 28 28 27 28 28 27 27 27 27 27 28 28 27 27 26 25 25 24 23 22 22 22 21 21 20 20 20 22 23 23 24 23 24 26 27 27 26 23 19 18 20 22 22
20 21 21 20 19 21 23 26 28 29 31 28 24 22 23 26 28 28 27 24 21 22 23 24 24 23 24 24 23 24 24 23 23 23 23 23 23 23 23 24 25 25 25 25 25 26 26 25 25 26 27 27 28 27 25 25 26 26 25 25 25 24 22 21 21 21 20 19 19 20 22 22 23 23 23 25 26 27 27 25 20 17 17 19 21
20 19 20 19 20 24 27 29 30 30 28 25 23 25 27 27 27 26 25 23 23 23 24 24 24 24 24 24 24 24 24 23 24 24 24 24 23 23 23 23 24 24 23 24 24 24 24 25 25 25 26 26 27 26 25 25 25 26 25 25 27 26 24 22 20 20 20 20 19 19 20 21 22 22 22 24 26 26 27 26 23 19 18 19 20
18 18 19 21 25 29 29 30 30 27 26 25 25 27 26 25 26 25 24 24 24 24 24 24 24 24 25 24 24 24 24 24 25 25 24 24 23 23 23 22 22 22 22 22 23 24 25 26 27 26 25 26 26 24 23 23 24 24 25 25 26 27 27 26 23 21 21 21 22 22 21 22 22 22 22 24 25 26 26 27 26 23 21 21 21
16 17 21 25 28 28 27 28 28 25 26 28 28 27 25 25 26 25 25 25 25 24 25 25 25 25 25 25 25 25 25 25 25 25 24 23 23 22 21 21 21 20 21 23 24 25 25 26 27 26 25 26 26 23 21 21 22 22 23 24 26 27 28 28 27 26 25 25 25 24 23 23 23 22 23 23 25 26 26 26 26 25 24 23 23
18 21 24 27 29 29 29 30 29 27 28 29 28 27 27 27 26 25 25 25 25 25 25 25 26 26 26 26 26 26 25 25 25 25 24 23 22 22 21 21 20 20 21 22 23 25 25 26 26 25 25 26 24 21 19 19 21 22 23 23 25 27 28 28 29 29 29 29 28 27 25 25 24 24 24 24 25 26 26 26 26 25 24 23 24
26 27 27 28 30 31 31 32 31 29 29 30 29 28 28 27 26 26 26 25 25 26 26 26 27 27 27 27 26 25 25 25 26 24 24 23 23 22 22 21 21 21 21 22 25 26 26 26 25 24 23 23 22 22 20 19 19 21 25 28 28 26 25 28 30 30 30 30 29 28 27 27 27 26 25 25 27 27 27 27 26 25 24 24 24
29 30 28 29 31 32 31 31 29 29 30 30 29 28 28 27 26 26 26 26 26 26 27 28 28 28 29 27 26 26 25 26 26 24 24 25 23 23 25 25 23 22 23 24 25 26 26 25 23 22 20 19 20 21 20 19 17 12 10 19 27 28 26 26 27 28 29 29 29 29 29 28 28 28 27 26 27 28 28 27 27 25 25 24 24
30 31 29 29 31 30 30 31 29 29 31 31 29 28 28 27 26 27 26 26 27 28 29 29 29 30 29 28 27 27 26 26 26 26 26 26 25 26 27 26 22 21 23 24 23 23 24 24 22 20 18 17 17 19 19 17 16 13 9 4 10 18 22 23 24 25 25 26 27 28 29 29 29 28 27 26 26 28 28 28 27 25 23 23 24
30 30 29 30 30 29 30 31 29 29 31 31 29 28 27 27 27 27 26 27 29 30 30 30 30 30 29 28 28 28 27 27 28 28 28 27 27 27 26 23 21 21 21 22 21 21 22 22 21 20 19 17 17 18 18 17 14 11 9 7 4 4 8 13 16 18 20 22 24 25 25 26 27 28 27 26 26 27 28 29 29 26 24 25 26
29 29 30 30 29 28 30 30 29 29 30 30 29 28 28 28 27 26 27 29 31 31 31 31 31 31 30 29 29 29 29 29 29 28 27 27 26 25 23 22 22 21 20 21 21 21 21 21 21 20 19 19 18 18 18 17 15 11 9 7 6 5 5 6 8 11 14 16 19 22 23 23 25 26 28 28 27 27 29 31 31 30 29 29 28
28 29 31 31 29 29 31 30 30 30 30 30 29 28 28 28 27 28 30 31 32 31 31 31 32 31 31 31 31 30 29 29 29 29 28 27 26 24 23 22 21 20 20 21 21 20 20 22 24 23 22 21 20 18 18 17 14 12 10 9 8 8 8 8 9 11 13 14 15 18 20 22 24 25 27 29 29 28 29 31 33 34 34 31 28
28 29 32 32 29 29 31 31 31 30 30 30 29 28 28 28 28 31 33 32 32 32 32 33 32 31 32 32 31 31 30 29 30 29 27 27 26 25 23 22 21 20 21 21 20 20 20 22 24 25 25 24 21 19 18 17 13 10 9 9 9 10 10 11 12 13 15 16 15 16 17 18 20 23 26 28 30 30 30 31 33 35 35 33 29
29 30 32 31 30 30 31 31 31 30 30 29 28 29 30 30 30 33 34 33 33 34 34 33 32 32 32 32 32 32 31 29 29 28 26 26 26 25 24 23 22 20 19 19 20 20 19 20 23 25 26 26 23 20 18 15 12 9 8 8 9 10 11 12 13 14 15 16 16 16 17 17 17 19 22 25 28 30 29 30 32 33 33 32 30
29 30 31 31 30 30 31 31 32 31 29 28 29 31 31 31 33 35 34 33 35 36 35 33 33 32 32 32 32 32 30 29 28 26 25 24 24 23 22 22 21 20 18 18 19 19 19 19 21 22 24 24 22 18 16 13 10 9 8 7 7 9 10 11 13 14 15 16 16 16 16 17 17 17 18 20 23 27 29 29 29 31 31 32 31
29 31 31 31 30 30 31 32 32 32 30 29 32 33 32 33 36 36 34 34 35 35 34 33 33 33 32 32 32 31 30 29 28 26 25 24 23 22 21 21 20 19 17 17 18 19 19 19 19 20 21 21 18 15 14 11 10 10 9 8 8 9 9 10 11 12 13 13 15 15 15 16 16 15 14 14 16 21 27 28 26 25 26 28 27
29 30 31 31 30 31 31 32 32 32 30 31 35 36 34 35 37 35 35 36 35 34 33 33 33 32 32 31 31 31 31 30 28 27 26 25 25 23 21 20 19 18 17 18 20 21 19 17 17 18 17 16 14 13 13 12 12 12 10 9 9 8 6 6 8 10 11 12 13 14 14 15 14 13 12 12 10 11 15 18 17 16 18 20 22
29 30 31 31 30 31 31 31 31 31 32 34 37 37 37 37 37 36 36 36 35 34 33 32 32 31 31 30 30 30 31 31 30 28 26 25 25 25 23 21 20 18 19 21 23 22 18 16 17 17 15 13 13 14 13 12 12 11 10 10 9 8 5 1 2 4 6 6 7 8 8 9 10 10 10 10 9 9 10 13 15 15 15 17 19
28 29 30 31 31 31 31 31 31 33 35 37 38 38 38 38 37 37 37 36 35 34 32 31 31 30 30 31 30 29 30 30 30 31 29 27 25 22 20 22 22 20 19 20 20 19 18 19 20 19 14 11 11 13 12 11 11 12 12 11 9 7 6 4 3 4 6 7 7 8 8 9 9 10 11 11 11 12 12 14 16 17 17 18 20
28 29 31 32 32 32 31 31 32 34 36 37 38 38 38 38 38 38 37 36 35 33 31 30 29 29 29 30 30 30 30 28 27 28 29 31 30 24 18 17 20 21 20 20 20 21 21 22 23 20 14 10 9 9 10 11 11 12 11 10 9 8 6 5 4 4 7 9 10 10 9 9 10 12 12 12 13 15 16 16 17 18 20 20 21
28 29 32 34 34 33 32 32 34 35 36 37 38 38 38 39 39 39 38 37 35 31 28 28 28 28 29 30 29 29 29 28 26 25 24 26 29 29 24 19 19 22 22 22 22 23 23 25 24 17 11 10 10 11 13 13 12 12 11 10 9 8 7 5 3 4 8 10 10 11 10 10 11 12 12 13 14 16 17 18 18 18 19 20 21
Wind_Direction
63 43 23 16 10 6 7 3 3 7 2 353 347 341 335 331 327 328 331 327 324 330 338 337 332 329 326 323 322 320 319 316 310 304 299 297 299 301 302 303 302 299 298 299 295 291 293 296 296 296 298 298 299 303 304 304 304 306 310 309 308 301 286 276 279 270 243 226 225 225 223 222 219 218 219 220 222 224 226 226 226 226 226 226 225
55 33 15 9 6 8 9 6 5 360 352 346 342 337 334 331 326 330 333 331 332 338 339 335 330 327 323 320 319 317 319 317 311 306 303 304 305 306 307 306 305 304 302 302 301 297 295 298 296 293 293 292 293 296 297 301 300 301 306 304 303 303 292 280 277 277 246 220 216 219 218 222 222 222 223 222 222 223 223 224 225 225 227 228 226
38 22 10 5 6 11 9 4 360 352 346 343 340 339 337 334 331 332 333 332 334 335 335 333 330 325 319 318 318 316 317 316 312 308 308 311 313 313 313 312 311 310 308 306 305 303 300 301 300 297 294 289 288 289 288 293 298 300 299 297 297 296 295 289 277 269 250 230 223 220 206 212 222 224 228 228 224 222 222 222 223 224 226 228 227
25 14 4 5 8 9 5 359 354 349 346 344 343 344 343 341 338 334 329 329 335 333 331 330 329 323 315 314 317 316 315 313 310 307 309 313 314 315 314 313 313 311 311 311 310 309 307 306 305 303 300 293 286 283 282 284 290 296 294 289 286 284 288 291 284 270 252 239 226 214 194 213 225 216 222 229 224 221 222 221 222 223 224 226 226
22 9 0 4 5 2 359 356 352 350 347 347 350 352 351 347 344 340 335 336 339 335 331 330 328 322 315 314 315 315 314 312 310 306 307 309 310 312 312 310 308 308 310 313 313 313 311 311 310 308 307 302 291 282 278 281 284 285 285 283 277 271 272 278 283 278 259 246 236 224 116 211 235 212 208 222 216 216 222 222 222 223 223 223 224
22 9 2 1 357 353 354 353 352 350 350 355 359 357 353 348 345 343 342 341 339 337 334 332 327 321 317 314 309 306 306 306 306 304 301 302 304 306 307 306 306 306 308 311 313 315 313 311 312 313 312 308 301 290 281 280 280 279 277 276 273 268 265 264 270 278 274 261 249 243 246 252 279 214 181 194 206 215 221 221 221 222 222 223 224
14 6 2 357 352 349 351 351 349 348 354 0 359 354 351 347 344 343 341 339 337 336 337 334 329 323 318 314 306 300 298 298 300 299 296 297 298 300 303 304 304 304 304 305 308 314 317 316 314 314 313 311 308 298 288 283 280 278 274 270 269 265 258 251 258 268 273 272 262 252 251 252 258 257 226 202 190 217 219 217 220 222 221 223 225
5 2 0 356 349 346 345 342 338 345 0 359 354 350 348 345 343 341 340 338 337 337 338 338 336 330 325 321 314 308 306 303 300 295 292 292 293 296 298 299 302 303 301 300 301 304 309 315 317 316 314 312 312 306 297 291 283 277 272 267 265 260 254 250 254 257 253 261 269 262 256 252 249 248 250 259 276 210 213 212 220 221 220 223 225
4 355 350 345 338 334 333 331 331 348 -0 353 349 347 344 342 339 339 340 341 340 339 339 340 338 334 328 324 317 313 310 307 302 294 287 287 288 290 291 295 299 297 297 300 301 302 302 305 310 314 316 313 312 310 304 298 288 279 273 269 264 257 255 254 253 251 247 250 258 261 262 256 249 245 244 246 252 239 207 197 213 214 221 227 226
334 317 327 329 327 326 327 327 328 345 351 346 345 342 339 338 336 335 338 340 340 340 340 339 336 331 325 320 316 312 308 306 302 294 286 283 281 281 285 290 293 292 298 303 302 301 300 300 302 306 310 310 308 307 305 302 295 286 278 273 267 258 254 255 254 253 250 248 249 250 254 254 249 245 235 228 235 247 237 213 202 193 212 228 225
283 287 311 316 317 321 326 328 324 332 339 340 341 338 336 334 332 332 333 336 337 337 337 336 333 329 322 317 314 311 308 304 299 292 285 279 274 274 280 285 290 294 298 297 292 292 294 298 302 303 304 304 303 302 301 300 298 294 286 277 268 258 252 254 255 253 249 246 245 243 245 248 245 246 237 221 216 230 237 228 201 197 209 225 224
281 281 292 297 307 325 334 333 318 320 332 336 337 335 333 331 329 327 328 332 334 333 334 333 331 327 321 316 312 309 307 302 296 290 284 276 271 274 281 286 291 294 292 288 288 292 295 298 303 305 304 302 299 298 296 296 295 293 290 281 268 255 250 252 252 250 247 244 243 240 242 248 247 249 248 235 221 219 224 231 190 195 211 230 228
275 278 291 305 323 333 335 326 303 307 325 331 332 330 328 327 324 322 324 328 330 330 331 330 328 326 321 314 309 307 306 303 298 289 279 272 274 282 288 291 294 292 287 285 288 294 297 300 302 303 303 300 297 294 291 290 290 290 288 282 268 256 254 256 251 249 248 245 244 242 241 244 248 252 251 244 232 223 222 231 202 191 207 227 221
275 290 312 329 331 327 325 314 291 294 317 325 326 325 322 321 319 317 320 324 327 328 328 327 327 324 319 312 306 305 306 306 301 289 276 275 284 289 292 293 292 289 285 286 292 297 298 300 301 300 299 297 294 290 287 284 284 285 285 281 271 262 261 258 252 249 249 248 247 243 240 242 247 252 252 246 238 226 219 221 209 199 217 207 195
290 306 321 325 319 315 313 306 289 288 311 321 321 320 318 317 315 314 318 322 324 325 325 324 323 321 317 309 303 304 305 306 303 295 289 291 292 292 292 290 286 284 287 292 296 299 300 300 299 298 296 293 289 286 281 277 277 279 281 281 275 267 262 256 251 248 247 247 246 244 242 242 244 248 250 248 242 233 226 221 212 197 214 203 177
312 319 324 314 308 303 301 297 285 285 307 316 316 316 315 313 312 312 315 319 322 323 322 320 320 318 312 305 301 303 304 303 302 301 300 297 292 289 286 282 283 288 293 296 298 300 299 299 297 295 293 290 286 283 277 271 270 274 277 277 274 269 260 253 250 247 245 245 245 244 242 242 244 245 246 249 246 241 234 228 220 209 204 204 197
317 317 310 301 298 295 295 292 279 281 303 311 311 312 310 308 309 310 314 318 319 320 320 319 318 314 308 301 299 301 300 299 302 305 303 298 293 288 285 287 293 298 299 299 299 299 297 296 294 291 290 288 285 282 276 269 267 270 272 272 271 267 258 252 250 247 244 243 243 243 242 242 246 246 244 246 247 244 239 233 227 221 218 211 200
314 311 302 296 294 292 295 291 279 284 302 308 308 308 305 303 306 311 316 318 319 319 318 318 316 311 305 299 297 298 299 300 302 302 301 300 298 296 298 300 301 302 302 300 297 296 295 293 291 288 288 286 284 282 276 269 266 266 267 267 268 266 257 252 251 247 243 242 241 242 242 242 245 246 245 246 245 243 240 236 231 226 225 224 216
312 312 306 298 293 292 295 290 281 291 304 307 308 305 301 301 307 315 318 319 320 320 318 317 315 309 303 299 298 300 301 300 300 301 302 303 301 301 303 304 303 303 301 298 296 294 292 291 288 286 285 284 283 281 277 270 266 265 265 265 266 263 255 250 248 244 243 241 239 238 238 240 244 244 246 247 244 241 238 237 234 229 227 227 225
314 314 308 299 293 292 293 286 284 298 307 308 306 302 299 307 317 321 321 321 320 319 317 316 314 308 304 302 300 299 299 298 300 303 304 302 300 303 306 306 306 304 299 297 295 293 292 290 287 284 282 281 280 279 277 272 266 263 263 264 265 261 252 248 246 243 242 240 237 236 234 237 242 243 244 246 244 241 237 234 233 230 227 228 227
316 313 305 300 295 293 290 286 293 307 311 308 304 302 308 320 325 325 323 322 320 318 316 314 311 308 304 302 301 302 303 301 301 304 305 306 307 309 309 307 307 305 302 300 297 295 293 289 285 281 278 276 276 279 281 275 266 261 261 262 263 258 249 246 245 242 241 238 235 235 235 237 241 241 242 244 243 242 238 233 230 228 226 226 226
314 311 307 303 298 294 293 296 306 313 312 308 307 314 327 328 327 324 322 320 319 318 317 313 311 308 304 303 306 310 309 305 306 311 311 308 307 306 306 306 305 303 303 303 300 297 293 289 287 283 277 275 278 282 284 280 268 259 258 260 259 253 246 243 242 240 239 237 235 234 235 237 239 237 239 242 242 241 237 232 228 225 223 223 223
310 309 307 306 303 302 304 308 314 316 313 313 320 333 334 330 327 324 320 319 318 318 316 313 310 308 306 306 307 309 310 312 315 315 311 306 303 301 302 302 298 294 294 297 298 295 291 290 290 287 282 280 282 281 281 284 278 262 254 256 256 251 244 239 237 238 239 238 235 233 233 236 235 233 235 238 240 241 238 233 230 226 223 223 222
311 311 311 311 312 313 313 315 320 320 319 327 338 336 331 328 326 323 320 319 319 318 316 312 310 309 309 308 307 307 310 315 316 313 311 308 304 301 300 299 295 291 289 291 293 292 290 289 289 289 290 289 288 288 287 292 296 282 259 250 251 250 244 239 237 238 239 238 234 231 232 234 231 227 230 233 235 237 236 233 231 227 225 224 223
318 321 320 317 316 317 322 329 329 325 327 338 337 330 327 324 322 321 320 320 320 319 316 313 311 311 311 309 308 311 310 310 311 310 309 307 305 303 300 297 295 291 286 287 291 295 296 297 298 299 300 302 302 303 299 295 299 301 286 264 255 252 243 238 239 239 240 238 235 234 233 232 227 223 224 226 228 231 233 231 230 226 224 223 221
327 327 324 325 327 330 340 340 331 327 337 339 332 327 324 321 321 322 323 323 322 319 315 314 314 313 312 311 312 316 314 310 308 305 302 303 303 302 300 297 295 289 282 286 299 306 305 303 303 302 298 299 301 300 298 296 295 297 298 289 276 264 249 239 239 241 242 241 239 238 237 232 226 221 220 220 222 225 228 229 228 225 223 219 216
331 331 335 344 343 340 345 341 331 333 346 334 329 329 326 322 321 324 327 326 322 319 316 316 315 314 313 312 312 312 310 306 304 301 298 299 301 302 303 302 298 290 286 297 307 306 304 301 299 297 293 293 296 295 292 293 292 292 293 290 283 275 261 249 245 245 246 247 244 243 241 234 227 223 221 219 218 219 223 226 227 225 222 217 211
333 340 348 353 349 344 347 344 338 337 337 333 332 332 328 324 322 324 328 327 321 317 317 317 316 316 315 313 311 309 306 302 300 298 297 298 301 302 302 300 298 295 297 303 304 302 301 299 295 292 288 286 287 286 285 284 285 286 287 285 281 276 269 259 253 251 250 250 249 247 245 240 233 230 227 223 219 217 217 220 224 224 219 215 210
342 353 357 355 352 346 342 340 336 334 337 340 338 332 327 325 325 327 327 325 322 318 318 317 317 316 314 311 308 305 303 302 301 301 301 301 301 301 299 298 297 297 299 300 300 299 298 295 293 289 284 281 279 277 277 277 278 279 279 279 275 272 268 260 255 252 250 249 248 247 246 245 241 238 234 230 225 222 218 216 218 219 216 211 208
356 1 357 350 343 338 338 338 340 343 345 343 334 329 328 331 331 329 326 325 324 320 319 319 317 315 311 309 307 306 306 308 308 307 305 302 300 299 298 298 298 297 299 299 299 297 295 291 290 287 282 278 274 272 271 270 269 269 269 269 267 266 265 260 254 250 247 247 247 246 246 246 245 241 237 234 230 225 223 220 217 216 214 210 204
3 355 346 341 339 342 346 347 348 346 340 333 329 331 337 335 330 327 326 326 325 323 322 321 318 315 314 313 313 314 314 312 310 308 306 304 303 301 299 298 298 297 297 297 297 295 293 290 287 283 280 276 273 270 269 267 264 261 259 258 258 260 260 256 251 247 245 244 244 245 247 247 245 241 237 237 233 228 224 221 216 216 217 213 207
357 346 342 345 348 349 349 345 341 336 332 332 338 345 342 333 328 328 329 328 327 326 325 322 321 320 320 319 318 317 315 313 312 310 309 307 305 303 299 296 295 295 294 295 294 291 290 289 286 282 279 277 274 271 267 263 261 258 253 250 250 253 255 252 246 242 241 242 241 243 245 246 246 244 239 236 233 228 224 217 213 215 219 219 215
347 344 347 351 349 344 342 339 335 333 337 344 350 345 337 333 332 332 333 332 330 328 326 325 325 324 322 321 319 317 316 315 314 312 310 307 304 300 298 295 293 292 291 289 288 286 286 287 287 283 279 277 277 273 266 261 259 255 251 247 244 244 248 249 245 241 240 240 240 241 242 244 247 245 240 235 231 227 222 216 213 215 219 222 223
345 350 349 347 344 341 339 337 336 341 349 351 346 339 335 336 337 336 336 335 332 330 329 328 326 325 324 323 321 320 318 315 313 312 308 306 303 300 298 296 293 291 289 288 287 286 286 288 288 284 279 278 279 275 267 260 257 253 249 245 242 240 242 244 245 244 244 243 243 241 240 242 246 244 239 234 231 226 221 216 214 213 215 220 225
350 354 347 345 344 340 339 342 346 352 353 348 343 340 338 339 340 338 337 336 333 332 331 329 327 326 326 325 323 320 318 315 313 311 308 306 303 301 299 297 294 291 289 289 289 289 290 292 291 286 283 284 287 285 275 265 259 253 247 242 239 237 236 238 242 244 245 246 245 242 241 241 242 243 238 231 228 226 223 219 216 213 214 217 223
353 352 347 347 346 343 344 346 346 349 350 345 342 341 339 339 341 339 337 337 335 333 331 329 328 327 326 325 323 320 316 314 314 312 309 308 306 303 301 299 297 295 292 292 295 297 297 299 299 297 293 292 299 305 296 279 265 254 246 239 235 234 232 232 236 240 242 244 243 241 241 240 240 240 236 229 226 224 221 219 217 214 213 216 223
353 348 345 347 347 345 345 343 341 344 346 343 341 341 340 340 340 340 338 338 336 334 331 330 328 327 326 324 321 318 315 313 314 312 309 309 308 306 305 305 302 299 300 304 308 309 309 308 308 309 305 302 314 328 320 298 280 261 245 235 229 227 227 228 230 234 237 239 240 238 238 239 238 237 234 229 225 221 217 216 216 213 212 217 225
351 343 344 350 349 346 343 341 342 345 344 342 342 343 343 341 341 340 339 337 336 334 332 331 328 327 325 322 319 319 316 313 313 312 310 310 308 308 312 315 311 306 308 314 316 317 318 318 316 314 312 309 319 333 332 320 317 314 264 232 224 221 222 224 227 231 233 235 236 236 235 235 234 234 232 228 224 219 214 211 211 211 210 214 220
346 342 348 352 348 345 344 344 345 345 344 344 344 344 343 342 341 340 338 337 336 334 332 330 327 325 323 321 320 319 316 314 313 313 313 312 310 313 317 319 315 311 313 317 318 317 320 325 328 326 322 316 316 330 340 338 337 349 0 311 230 220 219 221 223 225 227 229 230 231 231 230 230 231 229 225 223 221 215 211 211 210 209 212 215
343 347 353 351 346 344 345 345 345 344 343 344 344 344 344 342 341 340 339 338 336 333 330 328 325 324 322 320 321 320 317 317 317 316 316 316 316 318 318 316 314 314 315 316 318 318 320 326 334 335 333 330 325 328 339 345 340 337 344 351 335 250 228 224 221 219 220 221 224 227 228 228 228 229 228 224 223 223 220 214 211 210 210 214 216
344 352 355 349 344 344 344 344 344 343 343 344 344 344 343 341 341 341 339 337 334 331 329 327 325 323 322 321 323 324 322 321 321 320 320 319 320 321 319 317 317 316 315 317 320 323 323 325 331 332 331 333 332 326 325 333 336 330 323 321 312 295 274 252 242 236 229 223 222 224 227 228 227 227 227 225 225 227 224 219 213 214 218 217 214
346 354 354 347 343 344 343 343 344 343 343 344 344 344 343 341 341 340 337 335 333 331 329 327 325 324 324 325 327 327 326 326 326 326 324 322 324 325 323 322 322 321 321 322 324 327 327 327 331 333 332 333 335 328 321 325 328 320 310 303 291 281 272 260 256 253 249 244 235 229 229 230 229 228 227 226 225 225 224 220 216 218 222 220 214
346 350 349 345 344 343 342 342 342 343 344 344 344 344 343 341 339 337 335 333 332 332 329 327 327 326 327 328 329 329 330 329 330 330 326 323 326 328 328 329 328 327 326 326 328 331 329 326 329 332 333 336 338 334 328 328 329 320 307 295 281 271 263 252 246 245 246 249 249 244 240 237 234 231 230 229 227 224 223 222 220 219 222 221 215
345 346 345 345 344 342 341 341 341 342 344 345 345 343 341 340 339 337 335 334 333 333 331 330 330 329 329 330 330 331 332 331 331 330 327 325 327 329 330 332 332 330 328 326 327 328 327 325 323 324 328 333 335 335 334 333 332 324 311 297 280 266 258 252 250 249 249 248 248 247 246 245 244 241 238 237 234 228 224 224 223 220 220 218 212
343 344 344 344 342 339 339 339 340 343 344 345 345 343 340 339 338 337 336 335 334 333 332 331 331 331 331 331 331 332 333 333 333 332 327 325 327 328 328 330 331 330 327 322 322 323 322 320 316 314 319 325 329 333 338 342 344 338 324 310 292 275 262 256 253 253 254 252 249 245 243 243 246 247 245 243 241 236 232 229 228 225 220 214 209
343 343 343 343 341 339 339 338 339 343 344 344 344 343 340 338 338 338 338 336 335 334 333 332 332 332 332 333 333 333 334 335 336 336 333 330 329 327 327 328 329 327 323 319 318 319 316 313 310 309 312 318 327 339 346 351 354 350 342 333 318 299 276 259 252 250 251 253 250 245 240 238 239 240 242 245 246 239 231 227 225 221 214 208 203
343 342 342 342 340 340 340 338 339 342 343 342 342 343 342 341 340 340 339 337 336 335 333 332 333 332 333 335 334 334 335 336 337 338 338 337 336 334 329 325 324 323 321 319 316 313 311 308 308 312 318 325 336 345 351 357 359 356 355 351 343 334 309 267 251 248 249 253 253 246 237 233 231 230 231 237 238 223 208 203 201 199 198 198 197
342 342 342 342 340 339 338 337 338 340 341 341 342 342 343 343 342 342 341 339 338 337 334 333 333 334 335 336 336 335 337 337 338 339 339 338 338 337 332 328 327 322 316 312 310 309 313 318 321 326 333 342 348 352 358 8 13 17 24 24 15 9 10 348 232 224 224 228 229 220 208 204 204 199 194 196 194 183 176 177 177 179 181 183 186
340 341 341 341 339 338 337 336 338 340 341 341 342 342 344 344 344 344 343 341 339 337 335 335 335 336 337 337 337 338 339 338 338 340 341 341 341 337 330 330 335 333 325 322 325 331 338 342 340 339 341 342 345 356 14 30 36 39 41 39 36 37 44 59 93 135 145 142 142 143 142 148 155 154 150 150 151 152 153 156 161 164 165 166 169
340 339 340 340 340 338 337 337 338 340 341 341 341 342 344 346 346 345 345 343 340 338 336 336 336 336 337 337 337 337 338 338 338 339 340 343 347 350 346 336 336 341 344 348 354 356 356 355 350 348 352 351 350 12 41 49 47 47 46 44 46 49 55 71 101 135 131 121 117 115 115 122 128 128 126 127 130 131 130 130 137 146 153 156 158
339 339 339 340 340 339 339 339 340 341 341 341 342 343 345 346 347 347 346 344 342 339 336 335 335 336 336 337 336 336 337 338 339 339 339 340 344 351 359 1 356 354 356 2 6 5 5 5 3 3 17 30 35 53 61 55 50 52 50 45 44 46 57 73 114 143 121 108 105 103 98 103 112 114 114 119 123 125 125 125 127 132 141 148 150